カタログに戻る

CZ-6A DEB

運用中PO
NORAD 60698·DEBRIS·🇨🇳 China

打ち上げ Aug 6, 2024 から Taiyuan Satellite Launch Center

Loading…

次のパス (今後24時間)

TLE

最新Source: Space-Track

元期: Sep 14, 2026, 11:42 UTC

1 60698U 24140DB  26257.48750668  .00000664  00000-0  31626-3 0  9993
2 60698  89.0119 266.5723 0057288 267.2437  92.2193 14.17428782108381

AllMySatでCZ-6A DEBをリアルタイム追跡

Download on the App Store